Date String (YYYY-MM-DD hh:mm:ss) UTC,Instrument flags,absolute air pressure of the measurement (hPa),sample flow rate (lpm),inlet stack bypass flow (lpm),air temperature of the measurement (°C),ambient temperature measured by the external sensor (°C),aerosol sample conditioner tube jacket temperature (°C),OPC LED temperature (°C),internal box temperature (°C),relative humidity of the measurement (%),span deviation,mass concentration of particles derived from Lorenz-Mie calculation of OPC scattering (μg/m³),mass concentration of particles derived from Lorenz-Mie calculation of OPC scattering (μg/m³),mass concentration of particles derived from Lorenz-Mie calculation of OPC scattering (μg/m³)
DateTimeUTC,F1_M11,P_M11,Q1_M11,Q2_M11,T1_M11,T2_M11,T3_M11,T4_M11,T5_M11,U1_M11,ZSPAN_M11,X2_M11,X0_M11,X1_M11
2023-10-02 09:00:00,SystemResetWarning,0829.4,5.00,000.00,028.4,027.1,000.0,036.9,030.0,18.2,0000.0,0004.81,0012.08,0003.66
2023-10-02 09:01:00,SystemResetWarning,0829.4,5.01,000.00,028.4,027.1,000.0,036.9,030.0,18.0,0000.0,0004.82,0012.32,0003.66
2023-10-02 09:02:00,SystemResetWarning,0829.4,5.01,000.00,028.4,027.0,000.0,036.9,030.0,17.9,0000.0,0004.78,0011.99,0003.64
2023-10-02 09:03:00,SystemResetWarning,0829.4,4.99,000.00,028.4,027.0,000.0,036.9,030.0,17.8,0000.0,0004.75,0011.06,0003.63
2023-10-02 09:04:00,SystemResetWarning,0829.3,4.99,000.00,028.4,027.0,000.0,036.9,030.0,17.7,0000.0,0004.74,0010.97,0003.62
2023-10-02 09:05:00,SystemResetWarning,0829.3,5.01,000.00,028.4,027.0,000.0,036.9,030.0,17.7,0000.0,0004.75,0011.30,0003.62
2023-10-02 09:06:00,SystemResetWarning,0829.3,5.01,000.00,028.4,027.0,000.0,036.9,030.0,18.0,0000.0,0004.69,0010.65,0003.61
2023-10-02 09:07:00,SystemResetWarning,0829.3,5.00,000.00,028.4,027.0,000.0,036.9,030.0,18.1,0000.0,0004.65,0010.46,0003.60
2023-10-02 09:08:00,SystemResetWarning,0829.3,5.00,000.00,028.4,027.0,000.0,036.9,030.0,18.0,0000.0,0004.65,0011.55,0003.60
2023-10-02 09:09:00,SystemResetWarning,0829.3,5.00,000.00,028.4,027.0,000.0,036.9,030.0,18.2,0000.0,0004.62,0012.23,0003.60
2023-10-02 09:10:00,SystemResetWarning,0829.4,4.99,000.00,028.4,027.0,000.0,036.9,030.0,18.2,0000.0,0004.61,0012.48,0003.59
2023-10-02 09:11:00,SystemResetWarning,0829.4,5.00,000.00,028.4,027.0,000.0,036.9,030.0,18.4,0000.0,0004.60,0012.42,0003.59
2023-10-02 09:12:00,SystemResetWarning,0829.3,5.00,000.00,028.4,027.0,000.0,036.9,030.0,18.4,0000.0,0004.54,0012.67,0003.59
2023-10-02 09:13:00,SystemResetWarning,0829.3,5.00,000.00,028.4,027.0,000.0,036.9,030.0,18.4,0000.0,0004.56,0012.62,0003.59
2023-10-02 09:14:00,SystemResetWarning,0829.4,5.00,000.00,028.4,027.0,000.0,036.9,030.0,18.4,0000.0,0004.57,0013.35,0003.59
2023-10-02 09:15:00,SystemResetWarning,0829.4,5.00,000.00,028.4,027.0,000.0,036.9,030.0,18.4,0000.0,0004.57,0014.03,0003.59
2023-10-02 09:16:00,SystemResetWarning,0829.4,5.00,000.00,028.4,027.0,000.0,036.9,030.0,18.7,0000.0,0004.62,0014.66,0003.60
2023-10-02 09:17:00,SystemResetWarning,0829.4,5.00,000.00,028.4,027.0,000.0,036.9,030.0,18.6,0000.0,0004.69,0014.75,0003.61
2023-10-02 09:18:00,SystemResetWarning,0829.5,5.00,000.00,028.4,027.1,000.0,036.9,030.0,18.7,0000.0,0004.75,0015.91,0003.61
2023-10-02 09:19:00,SystemResetWarning,0829.5,5.00,000.00,028.4,027.1,000.0,036.9,030.1,18.8,0000.0,0004.74,0015.74,0003.61
2023-10-02 09:20:00,SystemResetWarning,0829.5,4.99,000.00,028.4,027.1,000.0,036.9,030.1,18.9,0000.0,0004.72,0014.64,0003.61
2023-10-02 09:21:00,SystemResetWarning,0829.5,4.99,000.00,028.4,027.0,000.0,036.9,030.0,18.8,0000.0,0004.69,0013.88,0003.62
2023-10-02 09:22:00,SystemResetWarning,0829.5,4.99,000.00,028.4,027.1,000.0,036.9,030.1,19.0,0000.0,0004.68,0013.92,0003.62
2023-10-02 09:23:00,SystemResetWarning,0829.6,5.00,000.00,028.4,027.1,000.0,036.9,030.1,19.2,0000.0,0004.70,0013.49,0003.61
2023-10-02 09:24:00,SystemResetWarning,0829.5,5.01,000.00,028.4,027.1,000.0,036.9,030.1,19.3,0000.0,0004.69,0013.22,0003.61
2023-10-02 09:25:00,SystemResetWarning,0829.6,5.01,000.00,028.4,027.0,000.0,036.9,030.1,19.3,0000.0,0004.65,0013.29,0003.61
2023-10-02 09:26:00,SystemResetWarning,0829.6,5.01,000.00,028.4,027.0,000.0,036.9,030.0,19.3,0000.0,0004.60,0012.50,0003.62
2023-10-02 09:27:00,SystemResetWarning,0829.6,5.00,000.00,028.4,027.0,000.0,036.9,030.0,19.3,0000.0,0004.55,0011.63,0003.61
2023-10-02 09:28:00,SystemResetWarning,0829.6,5.00,000.00,028.4,027.0,000.0,036.9,030.0,19.1,0000.0,0004.49,0011.61,0003.59
2023-10-02 09:29:00,SystemResetWarning,0829.6,4.99,000.00,028.4,027.0,000.0,036.9,030.0,19.1,0000.0,0004.43,0011.03,0003.59
2023-10-02 09:30:00,SystemResetWarning,0829.7,4.99,000.00,028.4,027.0,000.0,036.9,030.0,19.1,0000.0,0004.39,0010.72,0003.58
2023-10-02 09:31:00,SystemResetWarning,0829.7,5.00,000.00,028.4,027.0,000.0,036.9,029.9,19.0,0000.0,0004.36,0010.82,0003.57
2023-10-02 09:32:00,SystemResetWarning,0829.7,5.00,000.00,028.4,027.0,000.0,036.9,030.0,18.9,0000.0,0004.34,0011.11,0003.56
2023-10-02 09:33:00,SystemResetWarning,0829.7,5.00,000.00,028.4,027.0,000.0,036.9,030.0,18.8,0000.0,0004.31,0012.04,0003.56
2023-10-02 09:34:00,SystemResetWarning,0829.7,5.00,000.00,028.4,027.0,000.0,036.9,030.0,18.8,0000.0,0004.34,0012.09,0003.57
2023-10-02 09:35:00,SystemResetWarning,0829.7,5.00,000.00,028.4,027.0,000.0,036.9,030.1,18.8,0000.0,0004.35,0012.71,0003.58
2023-10-02 09:36:00,SystemResetWarning,0829.7,4.99,000.00,028.4,027.1,000.0,036.9,030.1,18.8,0000.0,0004.35,0012.81,0003.57
2023-10-02 09:37:00,SystemResetWarning,0829.7,4.99,000.00,028.4,027.1,000.0,036.9,030.1,18.7,0000.0,0004.38,0013.06,0003.57
2023-10-02 09:38:00,SystemResetWarning,0829.6,5.00,000.00,028.5,027.2,000.0,036.9,030.2,18.6,0000.0,0004.38,0013.45,0003.58
2023-10-02 09:39:00,SystemResetWarning,0829.7,5.01,000.00,028.5,027.2,000.0,036.9,030.2,18.6,0000.0,0004.38,0013.47,0003.59
2023-10-02 09:40:00,SystemResetWarning,0829.6,5.01,000.00,028.5,027.2,000.0,036.9,030.2,18.5,0000.0,0004.42,0013.29,0003.60
2023-10-02 09:41:00,SystemResetWarning,0829.6,5.00,000.00,028.5,027.3,000.0,036.9,030.2,18.5,0000.0,0004.45,0013.00,0003.60
2023-10-02 09:42:00,SystemResetWarning,0829.7,5.00,000.00,028.5,027.3,000.0,036.9,030.3,18.4,0000.0,0004.48,0012.83,0003.61
2023-10-02 09:43:00,SystemResetWarning,0829.6,5.00,000.00,028.6,027.3,000.0,036.9,030.3,18.2,0000.0,0004.49,0012.93,0003.62
2023-10-02 09:44:00,SystemResetWarning,0829.6,4.99,000.00,028.6,027.3,000.0,036.9,030.3,18.2,0000.0,0004.52,0012.31,0003.62
2023-10-02 09:45:00,SystemResetWarning,0829.6,4.99,000.00,028.6,027.3,000.0,037.0,030.3,18.2,0000.0,0004.51,0012.86,0003.62
2023-10-02 09:46:00,SystemResetWarning,0829.7,5.00,000.00,028.6,027.3,000.0,037.0,030.3,18.1,0000.0,0004.53,0012.40,0003.62
2023-10-02 09:47:00,SystemResetWarning,0829.6,5.02,000.00,028.6,027.3,000.0,037.0,030.3,18.0,0000.0,0004.56,0011.64,0003.62
2023-10-02 09:48:00,SystemResetWarning,0829.7,5.01,000.00,028.6,027.3,000.0,037.0,030.3,18.0,0000.0,0004.61,0011.63,0003.63
2023-10-02 09:49:00,SystemResetWarning,0829.6,4.99,000.00,028.6,027.3,000.0,037.0,030.3,18.0,0000.0,0004.62,0011.66,0003.62
2023-10-02 09:50:00,SystemResetWarning,0829.6,4.99,000.00,028.6,027.3,000.0,037.0,030.3,18.1,0000.0,0004.64,0011.48,0003.62
2023-10-02 09:51:00,SystemResetWarning,0829.6,4.99,000.00,028.6,027.3,000.0,037.0,030.3,18.1,0000.0,0004.61,0010.92,0003.62
2023-10-02 09:52:00,SystemResetWarning,0829.5,5.00,000.00,028.6,027.3,000.0,037.0,030.3,18.1,0000.0,0004.61,0010.85,0003.63
2023-10-02 09:53:00,SystemResetWarning,0829.5,5.00,000.00,028.6,027.3,000.0,037.0,030.3,18.1,0000.0,0004.61,0011.43,0003.63
2023-10-02 09:54:00,SystemResetWarning,0829.5,5.00,000.00,028.7,027.3,000.0,037.0,030.3,18.0,0000.0,0004.60,0011.48,0003.63
2023-10-02 09:55:00,SystemResetWarning,0829.5,5.00,000.00,028.7,027.3,000.0,037.0,030.3,17.9,0000.0,0004.63,0011.75,0003.63
2023-10-02 09:56:00,SystemResetWarning,0829.5,5.00,000.00,028.7,027.3,000.0,037.1,030.3,17.8,0000.0,0004.61,0011.38,0003.62
2023-10-02 09:57:00,SystemResetWarning,0829.6,5.00,000.00,028.7,027.3,000.0,037.1,030.3,17.9,0000.0,0004.60,0011.55,0003.62
2023-10-02 09:58:00,SystemResetWarning,0829.6,4.99,000.00,028.7,027.3,000.0,037.1,030.4,17.9,0000.0,0004.58,0011.85,0003.61
2023-10-02 09:59:00,SystemResetWarning,0829.6,4.99,000.00,028.7,027.3,000.0,037.1,030.4,17.8,0000.0,0004.55,0012.03,0003.61
